Time,TemperatureF,DewpointF,PressureIn,WindDirection,WindDirectionDegrees,WindSpeedMPH,WindSpeedGustMPH,Humidity,HourlyPrecipIn,Conditions,Clouds,dailyrainin,SoftwareType,DateUTC
2013-05-26 00:00:00,0.0,0.0,29.90,North,0,5.0,11.0,0,0.00,,,0.00,VWS V14.01,2013-05-26 04:00:00,
2013-05-26 00:05:00,0.0,0.0,29.90,North,0,3.0,9.0,0,0.00,,,0.00,VWS V14.01,2013-05-26 04:05:00,
2013-05-26 00:10:00,0.0,0.0,29.89,North,0,4.0,12.0,0,0.00,,,0.00,VWS V14.01,2013-05-26 04:10:00,
2013-05-26 00:15:00,0.0,0.0,29.89,North,0,2.0,12.0,0,0.00,,,0.00,VWS V14.01,2013-05-26 04:15:00,
2013-05-26 00:20:00,0.0,0.0,29.89,North,0,4.0,13.0,0,0.00,,,0.00,VWS V14.01,2013-05-26 04:20:00,
2013-05-26 00:25:00,0.0,0.0,29.88,North,0,4.0,12.0,0,0.00,,,0.00,VWS V14.01,2013-05-26 04:25:00,
2013-05-26 00:30:00,0.0,0.0,29.88,North,0,3.0,9.0,0,0.00,,,0.00,VWS V14.01,2013-05-26 04:30:00,
2013-05-26 00:35:00,0.0,0.0,29.88,North,0,4.0,13.0,0,0.00,,,0.00,VWS V14.01,2013-05-26 04:35:00,
2013-05-26 00:40:00,0.0,0.0,29.88,North,0,2.0,5.0,0,0.00,,,0.00,VWS V14.01,2013-05-26 04:40:00,
2013-05-26 00:45:00,0.0,0.0,29.88,North,0,3.0,13.0,0,0.00,,,0.00,VWS V14.01,2013-05-26 04:45:00,
2013-05-26 00:50:00,0.0,0.0,29.88,North,0,3.0,7.0,0,0.00,,,0.00,VWS V14.01,2013-05-26 04:50:00,
2013-05-26 00:55:00,0.0,0.0,29.87,North,0,4.0,13.0,0,0.00,,,0.00,VWS V14.01,2013-05-26 04:55:00,
2013-05-26 01:00:00,0.0,0.0,29.87,North,0,4.0,15.0,0,0.00,,,0.00,VWS V14.01,2013-05-26 05:00:00,
2013-05-26 01:05:00,0.0,0.0,29.87,North,0,5.0,14.0,0,0.00,,,0.00,VWS V14.01,2013-05-26 05:05:00,
2013-05-26 01:10:00,0.0,0.0,29.87,North,0,3.0,14.0,0,0.00,,,0.00,VWS V14.01,2013-05-26 05:10:00,
2013-05-26 01:15:00,0.0,0.0,29.87,North,0,6.0,17.0,0,0.00,,,0.00,VWS V14.01,2013-05-26 05:15:00,
2013-05-26 01:20:00,0.0,0.0,29.86,North,0,4.0,11.0,0,0.00,,,0.00,VWS V14.01,2013-05-26 05:20:00,
2013-05-26 01:25:00,0.0,0.0,29.86,North,0,4.0,10.0,0,0.00,,,0.00,VWS V14.01,2013-05-26 05:25:00,
2013-05-26 01:30:00,0.0,0.0,29.86,North,0,4.0,11.0,0,0.00,,,0.00,VWS V14.01,2013-05-26 05:30:00,
2013-05-26 01:35:00,0.0,0.0,29.86,North,0,3.0,9.0,0,0.00,,,0.00,VWS V14.01,2013-05-26 05:35:00,
2013-05-26 01:40:00,0.0,0.0,29.86,North,0,2.0,6.0,0,0.00,,,0.00,VWS V14.01,2013-05-26 05:40:00,
2013-05-26 01:45:00,0.0,0.0,29.86,North,0,5.0,12.0,0,0.00,,,0.00,VWS V14.01,2013-05-26 05:45:00,
2013-05-26 01:50:00,0.0,0.0,29.86,North,0,3.0,9.0,0,0.00,,,0.00,VWS V14.01,2013-05-26 05:50:00,
2013-05-26 01:55:00,0.0,0.0,29.86,North,0,3.0,9.0,0,0.00,,,0.00,VWS V14.01,2013-05-26 05:55:00,
2013-05-26 02:00:00,0.0,0.0,29.86,North,0,2.0,9.0,0,0.00,,,0.00,VWS V14.01,2013-05-26 06:00:00,
2013-05-26 02:05:00,0.0,0.0,29.86,North,0,4.0,12.0,0,0.00,,,0.00,VWS V14.01,2013-05-26 06:05:00,
2013-05-26 02:10:00,0.0,0.0,29.85,North,0,5.0,15.0,0,0.00,,,0.00,VWS V14.01,2013-05-26 06:10:00,
2013-05-26 02:15:00,0.0,0.0,29.85,North,0,4.0,12.0,0,0.00,,,0.00,VWS V14.01,2013-05-26 06:15:00,
2013-05-26 02:20:00,0.0,0.0,29.85,North,0,3.0,11.0,0,0.00,,,0.00,VWS V14.01,2013-05-26 06:20:00,
2013-05-26 02:25:00,0.0,0.0,29.86,North,0,4.0,12.0,0,0.00,,,0.00,VWS V14.01,2013-05-26 06:25:00,
2013-05-26 02:30:00,0.0,0.0,29.86,North,0,4.0,11.0,0,0.00,,,0.00,VWS V14.01,2013-05-26 06:30:00,
2013-05-26 02:35:00,0.0,0.0,29.85,North,0,5.0,16.0,0,0.00,,,0.00,VWS V14.01,2013-05-26 06:35:00,
2013-05-26 02:40:00,0.0,0.0,29.85,North,0,4.0,13.0,0,0.00,,,0.00,VWS V14.01,2013-05-26 06:40:00,
2013-05-26 02:45:00,0.0,0.0,29.85,North,0,4.0,14.0,0,0.00,,,0.00,VWS V14.01,2013-05-26 06:45:00,
2013-05-26 02:50:00,0.0,0.0,29.85,North,0,4.0,11.0,0,0.00,,,0.00,VWS V14.01,2013-05-26 06:50:00,
2013-05-26 02:55:00,0.0,0.0,29.84,North,0,3.0,9.0,0,0.00,,,0.00,VWS V14.01,2013-05-26 06:55:00,
2013-05-26 03:00:00,0.0,0.0,29.84,North,0,4.0,14.0,0,0.00,,,0.00,VWS V14.01,2013-05-26 07:00:00,
2013-05-26 03:05:00,0.0,0.0,29.85,North,0,4.0,14.0,0,0.00,,,0.00,VWS V14.01,2013-05-26 07:05:00,
2013-05-26 03:10:00,0.0,0.0,29.84,North,0,2.0,5.0,0,0.00,,,0.00,VWS V14.01,2013-05-26 07:10:00,
2013-05-26 03:15:00,0.0,0.0,29.85,North,0,3.0,12.0,0,0.00,,,0.00,VWS V14.01,2013-05-26 07:15:00,
2013-05-26 03:20:00,0.0,0.0,29.84,North,0,2.0,6.0,0,0.00,,,0.00,VWS V14.01,2013-05-26 07:20:00,
2013-05-26 03:25:00,0.0,0.0,29.84,North,0,2.0,5.0,0,0.00,,,0.00,VWS V14.01,2013-05-26 07:25:00,
2013-05-26 03:30:00,0.0,0.0,29.84,North,0,3.0,10.0,0,0.00,,,0.00,VWS V14.01,2013-05-26 07:30:00,
2013-05-26 03:35:00,0.0,0.0,29.84,North,0,3.0,7.0,0,0.00,,,0.00,VWS V14.01,2013-05-26 07:35:00,
2013-05-26 03:40:00,0.0,0.0,29.84,North,0,4.0,16.0,0,0.00,,,0.00,VWS V14.01,2013-05-26 07:40:00,
2013-05-26 03:45:00,0.0,0.0,29.84,North,0,3.0,7.0,0,0.00,,,0.00,VWS V14.01,2013-05-26 07:45:00,
2013-05-26 03:50:00,0.0,0.0,29.84,North,0,4.0,15.0,0,0.00,,,0.00,VWS V14.01,2013-05-26 07:50:00,
2013-05-26 03:55:00,0.0,0.0,29.84,North,0,3.0,11.0,0,0.00,,,0.00,VWS V14.01,2013-05-26 07:55:00,
2013-05-26 04:00:00,0.0,0.0,29.84,North,0,3.0,8.0,0,0.00,,,0.00,VWS V14.01,2013-05-26 08:00:00,
2013-05-26 04:05:00,0.0,0.0,29.84,North,0,3.0,7.0,0,0.00,,,0.00,VWS V14.01,2013-05-26 08:05:00,
2013-05-26 04:10:00,0.0,0.0,29.84,North,0,2.0,5.0,0,0.00,,,0.00,VWS V14.01,2013-05-26 08:10:00,
2013-05-26 04:15:00,0.0,0.0,29.85,North,0,3.0,10.0,0,0.00,,,0.00,VWS V14.01,2013-05-26 08:15:00,
2013-05-26 04:20:00,0.0,0.0,29.85,North,0,4.0,14.0,0,0.00,,,0.00,VWS V14.01,2013-05-26 08:20:00,
2013-05-26 04:25:00,0.0,0.0,29.85,North,0,4.0,11.0,0,0.00,,,0.00,VWS V14.01,2013-05-26 08:25:00,
2013-05-26 04:30:00,0.0,0.0,29.85,North,0,2.0,9.0,0,0.00,,,0.00,VWS V14.01,2013-05-26 08:30:00,
2013-05-26 04:35:00,0.0,0.0,29.85,North,0,2.0,9.0,0,0.00,,,0.00,VWS V14.01,2013-05-26 08:35:00,
2013-05-26 04:40:00,0.0,0.0,29.85,North,0,2.0,7.0,0,0.00,,,0.00,VWS V14.01,2013-05-26 08:40:00,
2013-05-26 04:45:00,0.0,0.0,29.85,North,0,3.0,11.0,0,0.00,,,0.00,VWS V14.01,2013-05-26 08:45:00,
2013-05-26 04:50:00,0.0,0.0,29.85,North,0,4.0,13.0,0,0.00,,,0.00,VWS V14.01,2013-05-26 08:50:00,
2013-05-26 04:55:00,0.0,0.0,29.85,North,0,4.0,10.0,0,0.00,,,0.00,VWS V14.01,2013-05-26 08:55:00,
2013-05-26 05:00:00,0.0,0.0,29.85,North,0,4.0,16.0,0,0.00,,,0.00,VWS V14.01,2013-05-26 09:00:00,
2013-05-26 05:05:00,0.0,0.0,29.85,North,0,3.0,10.0,0,0.00,,,0.00,VWS V14.01,2013-05-26 09:05:00,
2013-05-26 05:10:00,0.0,0.0,29.85,North,0,4.0,17.0,0,0.00,,,0.00,VWS V14.01,2013-05-26 09:10:00,
2013-05-26 05:15:00,0.0,0.0,29.86,North,0,3.0,18.0,0,0.00,,,0.00,VWS V14.01,2013-05-26 09:15:00,
2013-05-26 05:20:00,0.0,0.0,29.86,North,0,3.0,12.0,0,0.00,,,0.00,VWS V14.01,2013-05-26 09:20:00,
2013-05-26 05:25:00,0.0,0.0,29.86,North,0,2.0,7.0,0,0.00,,,0.00,VWS V14.01,2013-05-26 09:25:00,
2013-05-26 05:30:00,0.0,0.0,29.86,North,0,2.0,7.0,0,0.00,,,0.00,VWS V14.01,2013-05-26 09:30:00,
2013-05-26 05:35:00,0.0,0.0,29.86,North,0,2.0,6.0,0,0.00,,,0.00,VWS V14.01,2013-05-26 09:35:00,
2013-05-26 05:40:00,0.0,0.0,29.86,North,0,2.0,7.0,0,0.00,,,0.00,VWS V14.01,2013-05-26 09:40:00,
2013-05-26 05:45:00,0.0,0.0,29.86,North,0,3.0,9.0,0,0.00,,,0.00,VWS V14.01,2013-05-26 09:45:00,
2013-05-26 05:50:00,0.0,0.0,29.86,North,0,4.0,11.0,0,0.00,,,0.00,VWS V14.01,2013-05-26 09:50:00,
2013-05-26 05:55:00,0.0,0.0,29.86,North,0,4.0,11.0,0,0.00,,,0.00,VWS V14.01,2013-05-26 09:55:00,
2013-05-26 06:00:00,0.0,0.0,29.86,North,0,4.0,10.0,0,0.00,,,0.00,VWS V14.01,2013-05-26 10:00:00,
2013-05-26 06:05:00,0.0,0.0,29.87,North,0,5.0,12.0,0,0.00,,,0.00,VWS V14.01,2013-05-26 10:05:00,
2013-05-26 06:10:00,0.0,0.0,29.87,North,0,2.0,7.0,0,0.00,,,0.00,VWS V14.01,2013-05-26 10:10:00,
2013-05-26 06:15:00,0.0,0.0,29.87,North,0,3.0,6.0,0,0.00,,,0.00,VWS V14.01,2013-05-26 10:15:00,
2013-05-26 06:20:00,0.0,0.0,29.86,North,0,3.0,11.0,0,0.00,,,0.00,VWS V14.01,2013-05-26 10:20:00,
2013-05-26 06:25:00,0.0,0.0,29.87,North,0,2.0,8.0,0,0.00,,,0.00,VWS V14.01,2013-05-26 10:25:00,
2013-05-26 06:30:00,0.0,0.0,29.87,North,0,2.0,11.0,0,0.00,,,0.00,VWS V14.01,2013-05-26 10:30:00,
2013-05-26 06:35:00,0.0,0.0,29.87,North,0,2.0,7.0,0,0.00,,,0.00,VWS V14.01,2013-05-26 10:35:00,
2013-05-26 06:40:00,0.0,0.0,29.87,North,0,2.0,8.0,0,0.00,,,0.00,VWS V14.01,2013-05-26 10:40:00,
2013-05-26 06:45:00,0.0,0.0,29.87,North,0,3.0,9.0,0,0.00,,,0.00,VWS V14.01,2013-05-26 10:45:00,
2013-05-26 06:50:00,0.0,0.0,29.88,North,0,3.0,12.0,0,0.00,,,0.00,VWS V14.01,2013-05-26 10:50:00,
2013-05-26 06:55:00,0.0,0.0,29.88,North,0,3.0,10.0,0,0.00,,,0.00,VWS V14.01,2013-05-26 10:55:00,
2013-05-26 07:00:00,0.0,0.0,29.88,North,0,3.0,7.0,0,0.00,,,0.00,VWS V14.01,2013-05-26 11:00:00,
2013-05-26 07:05:00,0.0,0.0,29.88,North,0,2.0,7.0,0,0.00,,,0.00,VWS V14.01,2013-05-26 11:05:00,
2013-05-26 07:10:00,0.0,0.0,29.88,North,0,3.0,10.0,0,0.00,,,0.00,VWS V14.01,2013-05-26 11:10:00,
2013-05-26 07:15:00,0.0,0.0,29.88,North,0,3.0,14.0,0,0.00,,,0.00,VWS V14.01,2013-05-26 11:15:00,
2013-05-26 07:20:00,0.0,0.0,29.88,North,0,3.0,10.0,0,0.00,,,0.00,VWS V14.01,2013-05-26 11:20:00,
2013-05-26 07:25:00,0.0,0.0,29.88,North,0,2.0,7.0,0,0.00,,,0.00,VWS V14.01,2013-05-26 11:25:00,
2013-05-26 07:30:00,0.0,0.0,29.89,North,0,3.0,9.0,0,0.00,,,0.00,VWS V14.01,2013-05-26 11:30:00,
2013-05-26 07:35:00,0.0,0.0,29.89,North,0,3.0,10.0,0,0.00,,,0.00,VWS V14.01,2013-05-26 11:35:00,
2013-05-26 07:40:00,0.0,0.0,29.89,North,0,3.0,11.0,0,0.00,,,0.00,VWS V14.01,2013-05-26 11:40:00,
2013-05-26 07:45:00,0.0,0.0,29.89,North,0,6.0,16.0,0,0.00,,,0.00,VWS V14.01,2013-05-26 11:45:00,
2013-05-26 07:50:00,0.0,0.0,29.89,North,0,4.0,13.0,0,0.00,,,0.00,VWS V14.01,2013-05-26 11:50:00,
2013-05-26 07:55:00,0.0,0.0,29.89,North,0,3.0,9.0,0,0.00,,,0.00,VWS V14.01,2013-05-26 11:55:00,
2013-05-26 08:00:00,0.0,0.0,29.89,North,0,4.0,13.0,0,0.00,,,0.00,VWS V14.01,2013-05-26 12:00:00,
2013-05-26 08:05:00,0.0,0.0,29.90,North,0,3.0,6.0,0,0.00,,,0.00,VWS V14.01,2013-05-26 12:05:00,
2013-05-26 08:10:00,0.0,0.0,29.90,North,0,4.0,9.0,0,0.00,,,0.00,VWS V14.01,2013-05-26 12:10:00,
2013-05-26 08:15:00,0.0,0.0,29.90,North,0,3.0,5.0,0,0.00,,,0.00,VWS V14.01,2013-05-26 12:15:00,
2013-05-26 08:20:00,0.0,0.0,29.90,North,0,4.0,12.0,0,0.00,,,0.00,VWS V14.01,2013-05-26 12:20:00,
2013-05-26 08:25:00,0.0,0.0,29.90,North,0,3.0,11.0,0,0.00,,,0.00,VWS V14.01,2013-05-26 12:25:00,
2013-05-26 08:30:00,0.0,0.0,29.91,North,0,3.0,12.0,0,0.00,,,0.00,VWS V14.01,2013-05-26 12:30:00,
2013-05-26 08:35:00,0.0,0.0,29.91,North,0,3.0,13.0,0,0.00,,,0.00,VWS V14.01,2013-05-26 12:35:00,
2013-05-26 08:40:00,0.0,0.0,29.91,North,0,2.0,9.0,0,0.00,,,0.00,VWS V14.01,2013-05-26 12:40:00,
2013-05-26 08:45:00,0.0,0.0,29.91,North,0,2.0,8.0,0,0.00,,,0.00,VWS V14.01,2013-05-26 12:45:00,
2013-05-26 08:50:00,0.0,0.0,29.91,North,0,3.0,9.0,0,0.00,,,0.00,VWS V14.01,2013-05-26 12:50:00,
2013-05-26 08:55:00,0.0,0.0,29.92,North,0,2.0,6.0,0,0.00,,,0.00,VWS V14.01,2013-05-26 12:55:00,
2013-05-26 09:00:00,0.0,0.0,29.92,North,0,2.0,11.0,0,0.00,,,0.00,VWS V14.01,2013-05-26 13:00:00,
2013-05-26 09:05:00,0.0,0.0,29.92,North,0,3.0,10.0,0,0.00,,,0.00,VWS V14.01,2013-05-26 13:05:00,
2013-05-26 09:10:00,0.0,0.0,29.92,North,0,4.0,13.0,0,0.00,,,0.00,VWS V14.01,2013-05-26 13:10:00,
2013-05-26 09:15:00,0.0,0.0,29.92,North,0,5.0,14.0,0,0.00,,,0.00,VWS V14.01,2013-05-26 13:15:00,
2013-05-26 09:20:00,0.0,0.0,29.92,North,0,2.0,9.0,0,0.00,,,0.00,VWS V14.01,2013-05-26 13:20:00,
2013-05-26 09:25:00,0.0,0.0,29.92,North,0,4.0,14.0,0,0.00,,,0.00,VWS V14.01,2013-05-26 13:25:00,
2013-05-26 09:30:00,0.0,0.0,29.92,North,0,2.0,5.0,0,0.00,,,0.00,VWS V14.01,2013-05-26 13:30:00,
2013-05-26 09:35:00,0.0,0.0,29.92,North,0,4.0,10.0,0,0.00,,,0.00,VWS V14.01,2013-05-26 13:35:00,
2013-05-26 09:40:00,0.0,0.0,29.92,North,0,4.0,14.0,0,0.00,,,0.00,VWS V14.01,2013-05-26 13:40:00,
2013-05-26 09:45:00,0.0,0.0,29.92,North,0,2.0,6.0,0,0.00,,,0.00,VWS V14.01,2013-05-26 13:45:00,
2013-05-26 09:50:00,0.0,0.0,29.93,North,0,6.0,14.0,0,0.00,,,0.00,VWS V14.01,2013-05-26 13:50:00,
2013-05-26 09:55:00,0.0,0.0,29.93,North,0,4.0,14.0,0,0.00,,,0.00,VWS V14.01,2013-05-26 13:55:00,
2013-05-26 10:00:00,0.0,0.0,29.93,North,0,4.0,18.0,0,0.00,,,0.00,VWS V14.01,2013-05-26 14:00:00,
2013-05-26 10:05:00,0.0,0.0,29.93,North,0,3.0,14.0,0,0.00,,,0.00,VWS V14.01,2013-05-26 14:05:00,
2013-05-26 10:10:00,0.0,0.0,29.93,North,0,4.0,11.0,0,0.00,,,0.00,VWS V14.01,2013-05-26 14:10:00,
2013-05-26 10:15:00,0.0,0.0,29.93,North,0,4.0,17.0,0,0.00,,,0.00,VWS V14.01,2013-05-26 14:15:00,
2013-05-26 10:20:00,0.0,0.0,29.93,North,0,2.0,6.0,0,0.00,,,0.00,VWS V14.01,2013-05-26 14:20:00,
2013-05-26 10:25:00,0.0,0.0,29.93,North,0,2.0,9.0,0,0.00,,,0.00,VWS V14.01,2013-05-26 14:25:00,
2013-05-26 10:30:00,0.0,0.0,29.93,North,0,3.0,12.0,0,0.00,,,0.00,VWS V14.01,2013-05-26 14:30:00,
2013-05-26 10:35:00,0.0,0.0,29.93,North,0,2.0,7.0,0,0.00,,,0.00,VWS V14.01,2013-05-26 14:35:00,
2013-05-26 10:40:00,0.0,0.0,29.93,North,0,3.0,10.0,0,0.00,,,0.00,VWS V14.01,2013-05-26 14:40:00,
2013-05-26 10:45:00,0.0,0.0,29.93,North,0,4.0,12.0,0,0.00,,,0.00,VWS V14.01,2013-05-26 14:45:00,
2013-05-26 10:50:00,0.0,0.0,29.93,North,0,2.0,8.0,0,0.00,,,0.00,VWS V14.01,2013-05-26 14:50:00,
2013-05-26 10:55:00,0.0,0.0,29.93,North,0,3.0,13.0,0,0.00,,,0.00,VWS V14.01,2013-05-26 14:55:00,
2013-05-26 11:00:00,0.0,0.0,29.93,North,0,5.0,20.0,0,0.00,,,0.00,VWS V14.01,2013-05-26 15:00:00,
2013-05-26 11:05:00,0.0,0.0,29.93,North,0,3.0,9.0,0,0.00,,,0.00,VWS V14.01,2013-05-26 15:05:00,
2013-05-26 11:10:00,0.0,0.0,29.93,North,0,3.0,12.0,0,0.00,,,0.00,VWS V14.01,2013-05-26 15:10:00,
2013-05-26 11:15:00,0.0,0.0,29.93,North,0,4.0,14.0,0,0.00,,,0.00,VWS V14.01,2013-05-26 15:15:00,
2013-05-26 11:20:00,0.0,0.0,29.94,North,0,2.0,9.0,0,0.00,,,0.00,VWS V14.01,2013-05-26 15:20:00,
2013-05-26 11:25:00,0.0,0.0,29.94,North,0,4.0,12.0,0,0.00,,,0.00,VWS V14.01,2013-05-26 15:25:00,
2013-05-26 11:30:00,0.0,0.0,29.94,North,0,4.0,15.0,0,0.00,,,0.00,VWS V14.01,2013-05-26 15:30:00,
2013-05-26 11:35:00,0.0,0.0,29.94,North,0,2.0,6.0,0,0.00,,,0.00,VWS V14.01,2013-05-26 15:35:00,
2013-05-26 11:40:00,0.0,0.0,29.94,North,0,5.0,18.0,0,0.00,,,0.00,VWS V14.01,2013-05-26 15:40:00,
2013-05-26 11:45:00,0.0,0.0,29.94,North,0,4.0,10.0,0,0.00,,,0.00,VWS V14.01,2013-05-26 15:45:00,
2013-05-26 11:50:00,0.0,0.0,29.94,North,0,2.0,6.0,0,0.00,,,0.00,VWS V14.01,2013-05-26 15:50:00,
2013-05-26 11:55:00,0.0,0.0,29.94,North,0,3.0,10.0,0,0.00,,,0.00,VWS V14.01,2013-05-26 15:55:00,
2013-05-26 12:00:00,0.0,0.0,29.95,North,0,4.0,12.0,0,0.00,,,0.00,VWS V14.01,2013-05-26 16:00:00,
2013-05-26 12:05:00,0.0,0.0,29.95,North,0,3.0,8.0,0,0.00,,,0.00,VWS V14.01,2013-05-26 16:05:00,
2013-05-26 12:10:00,0.0,0.0,29.95,North,0,3.0,15.0,0,0.00,,,0.00,VWS V14.01,2013-05-26 16:10:00,
2013-05-26 12:15:00,0.0,0.0,29.95,North,0,4.0,16.0,0,0.00,,,0.00,VWS V14.01,2013-05-26 16:15:00,
2013-05-26 12:20:00,0.0,0.0,29.95,North,0,5.0,12.0,0,0.00,,,0.00,VWS V14.01,2013-05-26 16:20:00,
2013-05-26 12:25:00,0.0,0.0,29.96,North,0,4.0,11.0,0,0.00,,,0.00,VWS V14.01,2013-05-26 16:25:00,
2013-05-26 12:30:00,0.0,0.0,29.96,North,0,5.0,15.0,0,0.00,,,0.00,VWS V14.01,2013-05-26 16:30:00,
2013-05-26 12:35:00,0.0,0.0,29.96,North,0,3.0,9.0,0,0.00,,,0.00,VWS V14.01,2013-05-26 16:35:00,
2013-05-26 12:40:00,0.0,0.0,29.96,North,0,4.0,12.0,0,0.00,,,0.00,VWS V14.01,2013-05-26 16:40:00,
2013-05-26 12:45:00,0.0,0.0,29.96,North,0,3.0,13.0,0,0.00,,,0.00,VWS V14.01,2013-05-26 16:45:00,
2013-05-26 12:50:00,0.0,0.0,29.96,North,0,2.0,10.0,0,0.00,,,0.00,VWS V14.01,2013-05-26 16:50:00,
2013-05-26 12:55:00,0.0,0.0,29.97,North,0,2.0,6.0,0,0.00,,,0.00,VWS V14.01,2013-05-26 16:55:00,
2013-05-26 13:00:00,0.0,0.0,29.97,North,0,1.0,9.0,0,0.00,,,0.00,VWS V14.01,2013-05-26 17:00:00,
2013-05-26 13:05:00,0.0,0.0,29.97,North,0,0.0,0.0,0,0.00,,,0.00,VWS V14.01,2013-05-26 17:05:00,
2013-05-26 13:10:00,0.0,0.0,29.97,North,0,0.0,0.0,0,0.00,,,0.00,VWS V14.01,2013-05-26 17:10:00,
2013-05-26 13:15:00,0.0,0.0,29.97,North,0,0.0,0.0,0,0.00,,,0.00,VWS V14.01,2013-05-26 17:15:00,
2013-05-26 13:20:00,0.0,0.0,29.97,North,0,0.0,0.0,0,0.00,,,0.00,VWS V14.01,2013-05-26 17:20:00,
2013-05-26 13:25:00,0.0,0.0,29.98,North,0,0.0,0.0,0,0.00,,,0.00,VWS V14.01,2013-05-26 17:25:00,
2013-05-26 13:30:00,0.0,0.0,29.97,North,0,0.0,0.0,0,0.00,,,0.00,VWS V14.01,2013-05-26 17:30:00,
2013-05-26 13:35:00,0.0,0.0,29.97,North,0,0.0,0.0,0,0.00,,,0.00,VWS V14.01,2013-05-26 17:35:00,
2013-05-26 13:40:00,0.0,0.0,29.97,North,0,0.0,0.0,0,0.00,,,0.00,VWS V14.01,2013-05-26 17:40:00,
2013-05-26 13:45:00,0.0,0.0,29.97,North,0,0.0,0.0,0,0.00,,,0.00,VWS V14.01,2013-05-26 17:45:00,
2013-05-26 13:50:00,0.0,0.0,29.97,North,0,0.0,0.0,0,0.00,,,0.00,VWS V14.01,2013-05-26 17:50:00,
2013-05-26 13:55:00,0.0,0.0,29.98,North,0,0.0,0.0,0,0.00,,,0.00,VWS V14.01,2013-05-26 17:55:00,
2013-05-26 14:00:00,0.0,0.0,29.98,North,0,0.0,0.0,0,0.00,,,0.00,VWS V14.01,2013-05-26 18:00:00,
2013-05-26 14:05:00,0.0,0.0,29.99,North,0,0.0,0.0,0,0.00,,,0.00,VWS V14.01,2013-05-26 18:05:00,
2013-05-26 14:10:00,0.0,0.0,29.99,North,0,0.0,3.0,0,0.00,,,0.00,VWS V14.01,2013-05-26 18:10:00,
2013-05-26 14:15:00,0.0,0.0,30.00,North,0,5.0,16.0,0,0.00,,,0.00,VWS V14.01,2013-05-26 18:15:00,
2013-05-26 14:20:00,0.0,0.0,30.00,North,0,3.0,14.0,0,0.00,,,0.00,VWS V14.01,2013-05-26 18:20:00,
2013-05-26 14:25:00,0.0,0.0,30.00,North,0,4.0,10.0,0,0.00,,,0.00,VWS V14.01,2013-05-26 18:25:00,
2013-05-26 14:30:00,0.0,0.0,30.00,North,0,2.0,5.0,0,0.00,,,0.00,VWS V14.01,2013-05-26 18:30:00,
2013-05-26 14:35:00,0.0,0.0,30.00,North,0,3.0,11.0,0,0.00,,,0.00,VWS V14.01,2013-05-26 18:35:00,
2013-05-26 14:40:00,0.0,0.0,30.00,North,0,2.0,10.0,0,0.00,,,0.00,VWS V14.01,2013-05-26 18:40:00,
2013-05-26 14:45:00,0.0,0.0,30.00,North,0,4.0,10.0,0,0.00,,,0.00,VWS V14.01,2013-05-26 18:45:00,
2013-05-26 14:50:00,0.0,0.0,30.00,North,0,3.0,9.0,0,0.00,,,0.00,VWS V14.01,2013-05-26 18:50:00,
2013-05-26 14:55:00,0.0,0.0,30.01,North,0,3.0,7.0,0,0.00,,,0.00,VWS V14.01,2013-05-26 18:55:00,
2013-05-26 15:00:00,0.0,0.0,30.00,North,0,2.0,7.0,0,0.00,,,0.00,VWS V14.01,2013-05-26 19:00:00,
2013-05-26 15:05:00,0.0,0.0,30.01,North,0,1.0,4.0,0,0.00,,,0.00,VWS V14.01,2013-05-26 19:05:00,
2013-05-26 15:10:00,0.0,0.0,30.01,North,0,4.0,11.0,0,0.00,,,0.00,VWS V14.01,2013-05-26 19:10:00,
2013-05-26 15:15:00,0.0,0.0,30.02,North,0,5.0,11.0,0,0.00,,,0.00,VWS V14.01,2013-05-26 19:15:00,
2013-05-26 15:20:00,0.0,0.0,30.01,North,0,4.0,14.0,0,0.00,,,0.00,VWS V14.01,2013-05-26 19:20:00,
2013-05-26 15:25:00,0.0,0.0,30.02,North,0,3.0,11.0,0,0.00,,,0.00,VWS V14.01,2013-05-26 19:25:00,
2013-05-26 15:30:00,0.0,0.0,30.02,North,0,2.0,9.0,0,0.00,,,0.00,VWS V14.01,2013-05-26 19:30:00,
2013-05-26 15:35:00,0.0,0.0,30.02,North,0,3.0,11.0,0,0.00,,,0.00,VWS V14.01,2013-05-26 19:35:00,
2013-05-26 15:40:00,0.0,0.0,30.03,North,0,3.0,9.0,0,0.00,,,0.00,VWS V14.01,2013-05-26 19:40:00,
2013-05-26 15:45:00,0.0,0.0,30.03,North,0,2.0,6.0,0,0.00,,,0.00,VWS V14.01,2013-05-26 19:45:00,
2013-05-26 15:50:00,0.0,0.0,30.03,North,0,3.0,12.0,0,0.00,,,0.00,VWS V14.01,2013-05-26 19:50:00,
2013-05-26 15:55:00,0.0,-2.7,30.03,North,0,2.0,11.0,88,0.00,,,0.00,VWS V14.01,2013-05-26 19:55:00,
2013-05-26 16:00:00,0.0,-2.5,30.03,North,0,2.0,6.0,89,0.00,,,0.00,VWS V14.01,2013-05-26 20:00:00,
2013-05-26 16:05:00,0.0,-2.5,30.03,North,0,1.0,5.0,89,0.00,,,0.00,VWS V14.01,2013-05-26 20:05:00,
2013-05-26 16:10:00,0.0,-2.5,30.03,North,0,3.0,11.0,89,0.00,,,0.00,VWS V14.01,2013-05-26 20:10:00,
2013-05-26 16:15:00,0.0,-2.5,30.04,North,0,1.0,10.0,89,0.00,,,0.00,VWS V14.01,2013-05-26 20:15:00,
2013-05-26 16:20:00,0.0,-2.5,30.04,North,0,1.0,7.0,89,0.00,,,0.00,VWS V14.01,2013-05-26 20:20:00,
2013-05-26 16:25:00,0.0,-2.5,30.04,North,0,3.0,9.0,89,0.00,,,0.00,VWS V14.01,2013-05-26 20:25:00,
2013-05-26 16:30:00,0.0,-2.5,30.04,North,0,3.0,10.0,89,0.00,,,0.00,VWS V14.01,2013-05-26 20:30:00,
2013-05-26 16:35:00,45.2,42.2,30.05,North,0,2.0,5.0,89,0.00,,,0.00,VWS V14.01,2013-05-26 20:35:00,
2013-05-26 16:40:00,45.1,42.1,30.05,North,0,2.0,7.0,89,0.00,,,0.00,VWS V14.01,2013-05-26 20:40:00,
2013-05-26 16:45:00,45.1,42.1,30.05,North,0,1.0,6.0,89,0.00,,,0.00,VWS V14.01,2013-05-26 20:45:00,
2013-05-26 16:50:00,45.1,42.3,30.06,North,0,1.0,4.0,90,0.00,,,0.00,VWS V14.01,2013-05-26 20:50:00,
2013-05-26 16:55:00,45.2,42.5,30.06,North,0,2.0,5.0,90,0.00,,,0.00,VWS V14.01,2013-05-26 20:55:00,
2013-05-26 17:00:00,45.1,42.3,30.06,North,0,1.0,7.0,90,0.00,,,0.00,VWS V14.01,2013-05-26 21:00:00,
2013-05-26 17:05:00,45.1,42.6,30.06,North,0,1.0,4.0,91,0.00,,,0.00,VWS V14.01,2013-05-26 21:05:00,
2013-05-26 17:10:00,45.1,42.6,30.07,North,0,3.0,7.0,91,0.00,,,0.00,VWS V14.01,2013-05-26 21:10:00,
2013-05-26 17:15:00,45.0,42.5,30.07,North,0,2.0,7.0,91,0.00,,,0.00,VWS V14.01,2013-05-26 21:15:00,
2013-05-26 17:20:00,44.9,42.4,30.07,North,0,3.0,7.0,91,0.00,,,0.00,VWS V14.01,2013-05-26 21:20:00,
2013-05-26 17:25:00,44.8,42.3,30.07,North,0,3.0,10.0,91,0.00,,,0.00,VWS V14.01,2013-05-26 21:25:00,
2013-05-26 17:30:00,44.7,42.2,30.08,North,0,1.0,4.0,91,0.00,,,0.00,VWS V14.01,2013-05-26 21:30:00,
2013-05-26 17:35:00,44.8,42.6,30.08,North,0,2.0,6.0,92,0.00,,,0.00,VWS V14.01,2013-05-26 21:35:00,
2013-05-26 17:40:00,44.8,42.6,30.09,North,0,2.0,6.0,92,0.00,,,0.00,VWS V14.01,2013-05-26 21:40:00,
2013-05-26 17:45:00,44.9,42.7,30.09,North,0,1.0,5.0,92,0.00,,,0.00,VWS V14.01,2013-05-26 21:45:00,
2013-05-26 17:50:00,44.9,42.7,30.09,North,0,3.0,10.0,92,0.00,,,0.00,VWS V14.01,2013-05-26 21:50:00,
2013-05-26 17:55:00,44.9,42.7,30.09,North,0,1.0,4.0,92,0.00,,,0.00,VWS V14.01,2013-05-26 21:55:00,
2013-05-26 18:00:00,45.0,42.8,30.09,North,0,1.0,5.0,92,0.00,,,0.00,VWS V14.01,2013-05-26 22:00:00,
2013-05-26 18:05:00,45.0,42.8,30.10,North,0,1.0,5.0,92,0.00,,,0.00,VWS V14.01,2013-05-26 22:05:00,
2013-05-26 18:10:00,45.0,42.8,30.09,North,0,1.0,5.0,92,0.00,,,0.00,VWS V14.01,2013-05-26 22:10:00,
2013-05-26 18:15:00,45.1,42.9,30.09,North,0,1.0,4.0,92,0.00,,,0.00,VWS V14.01,2013-05-26 22:15:00,
2013-05-26 18:20:00,45.0,43.1,30.09,North,0,0.0,4.0,93,0.00,,,0.00,VWS V14.01,2013-05-26 22:20:00,
2013-05-26 18:25:00,45.1,42.9,30.09,North,0,2.0,5.0,92,0.00,,,0.00,VWS V14.01,2013-05-26 22:25:00,
2013-05-26 18:30:00,45.1,42.9,30.10,North,0,1.0,4.0,92,0.00,,,0.00,VWS V14.01,2013-05-26 22:30:00,
2013-05-26 18:35:00,45.2,43.3,30.09,North,0,1.0,3.0,93,0.00,,,0.00,VWS V14.01,2013-05-26 22:35:00,
2013-05-26 18:40:00,45.4,43.5,30.09,North,0,1.0,3.0,93,0.00,,,0.00,VWS V14.01,2013-05-26 22:40:00,
2013-05-26 18:45:00,45.4,43.5,30.10,North,0,0.0,2.0,93,0.00,,,0.00,VWS V14.01,2013-05-26 22:45:00,
2013-05-26 18:50:00,45.5,43.6,30.10,North,0,0.0,0.0,93,0.00,,,0.00,VWS V14.01,2013-05-26 22:50:00,
2013-05-26 18:55:00,45.6,43.7,30.10,North,0,0.0,0.0,93,0.00,,,0.00,VWS V14.01,2013-05-26 22:55:00,
2013-05-26 19:00:00,45.6,43.7,30.10,North,0,0.0,2.0,93,0.00,,,0.00,VWS V14.01,2013-05-26 23:00:00,
2013-05-26 19:05:00,46.0,44.1,30.11,North,0,0.0,0.0,93,0.00,,,0.00,VWS V14.01,2013-05-26 23:05:00,
2013-05-26 19:10:00,46.3,44.4,30.10,North,0,0.0,0.0,93,0.00,,,0.00,VWS V14.01,2013-05-26 23:10:00,
2013-05-26 19:15:00,46.3,44.4,30.10,North,0,0.0,2.0,93,0.00,,,0.00,VWS V14.01,2013-05-26 23:15:00,
2013-05-26 19:20:00,46.2,44.3,30.10,North,0,1.0,3.0,93,0.00,,,0.00,VWS V14.01,2013-05-26 23:20:00,
2013-05-26 19:25:00,46.2,44.3,30.10,North,0,0.0,0.0,93,0.00,,,0.00,VWS V14.01,2013-05-26 23:25:00,
2013-05-26 19:30:00,46.2,44.3,30.10,North,0,0.0,0.0,93,0.00,,,0.00,VWS V14.01,2013-05-26 23:30:00,
2013-05-26 19:35:00,46.2,44.3,30.10,North,0,0.0,0.0,93,0.00,,,0.00,VWS V14.01,2013-05-26 23:35:00,
2013-05-26 19:40:00,46.2,44.3,30.10,North,0,0.0,0.0,93,0.00,,,0.00,VWS V14.01,2013-05-26 23:40:00,
2013-05-26 19:45:00,46.2,44.3,30.10,North,0,0.0,0.0,93,0.00,,,0.00,VWS V14.01,2013-05-26 23:45:00,
2013-05-26 19:50:00,46.2,44.3,30.10,North,0,0.0,0.0,93,0.00,,,0.00,VWS V14.01,2013-05-26 23:50:00,
2013-05-26 19:55:00,46.2,44.3,30.10,North,0,0.0,0.0,93,0.00,,,0.00,VWS V14.01,2013-05-26 23:55:00,
2013-05-26 20:00:00,46.2,44.3,30.10,North,0,0.0,0.0,93,0.00,,,0.00,VWS V14.01,2013-05-27 00:00:00,
2013-05-26 20:05:00,46.2,44.3,30.10,North,0,0.0,0.0,93,0.00,,,0.00,VWS V14.01,2013-05-27 00:05:00,
2013-05-26 20:10:00,46.2,44.3,30.10,North,0,0.0,0.0,93,0.00,,,0.00,VWS V14.01,2013-05-27 00:10:00,
2013-05-26 20:15:00,46.2,44.3,30.10,North,0,0.0,0.0,93,0.00,,,0.00,VWS V14.01,2013-05-27 00:15:00,
2013-05-26 20:20:00,46.2,44.3,30.10,North,0,0.0,0.0,93,0.00,,,0.00,VWS V14.01,2013-05-27 00:20:00,
2013-05-26 20:25:00,46.2,44.3,30.10,North,0,0.0,0.0,93,0.00,,,0.00,VWS V14.01,2013-05-27 00:25:00,
2013-05-26 20:30:00,46.2,44.3,30.10,North,0,0.0,0.0,93,0.00,,,0.00,VWS V14.01,2013-05-27 00:30:00,
2013-05-26 20:35:00,46.2,44.3,30.10,North,0,0.0,0.0,93,0.00,,,0.00,VWS V14.01,2013-05-27 00:35:00,
2013-05-26 20:40:00,46.2,44.3,30.10,North,0,0.0,1.0,93,0.00,,,0.00,VWS V14.01,2013-05-27 00:40:00,
2013-05-26 20:45:00,46.2,44.3,30.10,North,0,0.0,0.0,93,0.00,,,0.00,VWS V14.01,2013-05-27 00:45:00,
2013-05-26 20:50:00,41.8,39.9,30.10,North,0,0.0,0.0,93,0.00,,,0.00,VWS V14.01,2013-05-27 00:50:00,
2013-05-26 20:55:00,41.4,39.2,30.10,North,0,0.0,0.0,92,0.00,,,0.00,VWS V14.01,2013-05-27 00:55:00,
2013-05-26 21:00:00,41.1,39.2,30.10,North,0,0.0,0.0,93,0.00,,,0.00,VWS V14.01,2013-05-27 01:00:00,
2013-05-26 21:05:00,40.9,39.0,30.10,North,0,0.0,0.0,93,0.00,,,0.00,VWS V14.01,2013-05-27 01:05:00,
2013-05-26 21:10:00,40.5,38.6,30.10,North,0,0.0,0.0,93,0.00,,,0.00,VWS V14.01,2013-05-27 01:10:00,
2013-05-26 21:15:00,40.3,38.4,30.10,North,0,0.0,0.0,93,0.00,,,0.00,VWS V14.01,2013-05-27 01:15:00,
2013-05-26 21:20:00,40.1,38.2,30.10,North,0,0.0,0.0,93,0.00,,,0.00,VWS V14.01,2013-05-27 01:20:00,
2013-05-26 21:25:00,40.0,38.1,30.11,North,0,0.0,0.0,93,0.00,,,0.00,VWS V14.01,2013-05-27 01:25:00,
2013-05-26 21:30:00,39.8,38.0,30.11,North,0,0.0,0.0,93,0.00,,,0.00,VWS V14.01,2013-05-27 01:30:00,
2013-05-26 21:35:00,39.7,37.8,30.10,North,0,0.0,0.0,93,0.00,,,0.00,VWS V14.01,2013-05-27 01:35:00,
2013-05-26 21:40:00,39.7,38.1,30.11,North,0,0.0,0.0,94,0.00,,,0.00,VWS V14.01,2013-05-27 01:40:00,
2013-05-26 21:45:00,39.7,38.1,30.11,North,0,0.0,0.0,94,0.00,,,0.00,VWS V14.01,2013-05-27 01:45:00,
2013-05-26 21:50:00,39.7,38.1,30.11,North,0,0.0,0.0,94,0.00,,,0.00,VWS V14.01,2013-05-27 01:50:00,
2013-05-26 21:55:00,39.6,38.0,30.11,North,0,0.0,0.0,94,0.00,,,0.00,VWS V14.01,2013-05-27 01:55:00,
2013-05-26 22:00:00,39.5,37.7,30.11,North,0,0.0,0.0,93,0.00,,,0.00,VWS V14.01,2013-05-27 02:00:00,
2013-05-26 22:05:00,39.3,37.5,30.11,North,0,0.0,0.0,93,0.00,,,0.00,VWS V14.01,2013-05-27 02:05:00,
2013-05-26 22:10:00,39.2,37.6,30.11,North,0,0.0,0.0,94,0.00,,,0.00,VWS V14.01,2013-05-27 02:10:00,
2013-05-26 22:15:00,39.2,37.6,30.12,North,0,0.0,0.0,94,0.00,,,0.00,VWS V14.01,2013-05-27 02:15:00,
2013-05-26 22:20:00,39.1,37.5,30.12,North,0,0.0,0.0,94,0.00,,,0.00,VWS V14.01,2013-05-27 02:20:00,
2013-05-26 22:25:00,39.0,37.4,30.12,North,0,0.0,0.0,94,0.00,,,0.00,VWS V14.01,2013-05-27 02:25:00,
2013-05-26 22:30:00,38.9,37.3,30.12,North,0,0.0,0.0,94,0.00,,,0.00,VWS V14.01,2013-05-27 02:30:00,
2013-05-26 22:35:00,38.9,37.3,30.12,North,0,0.0,1.0,94,0.00,,,0.00,VWS V14.01,2013-05-27 02:35:00,
2013-05-26 22:40:00,39.1,37.5,30.12,North,0,0.0,2.0,94,0.00,,,0.00,VWS V14.01,2013-05-27 02:40:00,
2013-05-26 22:45:00,39.1,37.5,30.12,North,0,0.0,0.0,94,0.00,,,0.00,VWS V14.01,2013-05-27 02:45:00,
2013-05-26 22:50:00,39.1,37.5,30.12,North,0,0.0,0.0,94,0.00,,,0.00,VWS V14.01,2013-05-27 02:50:00,
2013-05-26 22:55:00,39.1,37.5,30.12,North,0,0.0,0.0,94,0.00,,,0.00,VWS V14.01,2013-05-27 02:55:00,
2013-05-26 23:00:00,39.1,37.5,30.12,North,0,0.0,1.0,94,0.00,,,0.00,VWS V14.01,2013-05-27 03:00:00,
2013-05-26 23:05:00,39.1,37.5,30.12,North,0,2.0,4.0,94,0.00,,,0.00,VWS V14.01,2013-05-27 03:05:00,
2013-05-26 23:10:00,39.1,37.5,30.12,North,0,2.0,4.0,94,0.00,,,0.00,VWS V14.01,2013-05-27 03:10:00,
2013-05-26 23:15:00,39.1,37.5,30.12,North,0,2.0,4.0,94,0.00,,,0.00,VWS V14.01,2013-05-27 03:15:00,
2013-05-26 23:20:00,39.1,37.5,30.12,North,0,2.0,4.0,94,0.00,,,0.00,VWS V14.01,2013-05-27 03:20:00,
2013-05-26 23:25:00,39.1,37.5,30.12,North,0,2.0,4.0,94,0.00,,,0.00,VWS V14.01,2013-05-27 03:25:00,
2013-05-26 23:30:00,39.1,37.5,30.12,North,0,2.0,4.0,94,0.00,,,0.00,VWS V14.01,2013-05-27 03:30:00,
2013-05-26 23:35:00,39.1,37.5,30.12,North,0,2.0,4.0,94,0.00,,,0.00,VWS V14.01,2013-05-27 03:35:00,
2013-05-26 23:40:00,39.1,37.5,30.12,North,0,2.0,4.0,94,0.00,,,0.00,VWS V14.01,2013-05-27 03:40:00,
2013-05-26 23:45:00,39.1,37.5,30.12,North,0,3.0,4.0,94,0.00,,,0.00,VWS V14.01,2013-05-27 03:45:00,
2013-05-26 23:50:00,39.1,37.5,30.12,North,0,2.0,3.0,94,0.00,,,0.00,VWS V14.01,2013-05-27 03:50:00,
2013-05-26 23:55:00,39.1,37.5,30.12,North,0,2.0,4.0,94,0.00,,,0.00,VWS V14.01,2013-05-27 03:55:00,